Back to catalog

ONEWEB-0359

AliveCommunicationsPO
NORAD 49285·PAYLOAD·🇬🇧 United Kingdom

Launched Oct 14, 2021 from Vostochny Cosmodrome

Loading…

Next Passes (next 24 hours)

TLE

FreshSource: CelesTrak SupGP

Epoch: Sep 14, 2026, 07:01 UTC

1 49285C 21090G   26257.29289769 -.00000265  00000+0 -65336-3 0  2571
2 49285  87.9139 256.6599 0002014  95.9323  25.1659 13.20769272    15

Track ONEWEB-0359 in real time with AllMySat

Download on the App Store